{"data":{"norad_id":62822,"intl_designator":"2025-018S","name":"STARLINK-32842","alt_names":[],"object_type":"PAYLOAD","status":"ACTIVE","operator":null,"country":"US","launch_date":"2025-01-24","launch_site_code":"AFWTR","launch_vehicle":null,"mission":null,"orbit_class":"UNKNOWN","rcs_meters":null,"size_class":null,"mass_kg":null,"dimensions":null,"purposes":["comms"],"wikipedia_slug":null,"has_3d_model":false,"image_url":null,"decayed_at":null,"tle_current":{"epoch":"2026-09-21T19:32:46.917888Z","epoch_age_seconds":54630,"freshness":"FRESH","line1":"1 62822U 25018S   26264.81443192  .00015617  00000+0  47247-3 0  9994","line2":"2 62822  53.1568 115.2379 0001205 112.1996 247.9134 15.34392769 93253","mean_motion":15.34392769,"eccentricity":0.0001205,"inclination_deg":53.1568,"raan_deg":115.2379,"arg_perigee_deg":112.1996,"mean_anomaly_deg":247.9134,"bstar":0.00047247,"rev_number":9325,"period_min":93.848200349542,"perigee_km":461.90040850863,"apogee_km":463.54905618612,"semimajor_km":6840.8617323474,"source":"CELESTRAK","updated_at":"2026-09-22T09:00:49.669837Z"}}}